Wind_Speed
16 17 17 18 19 19 20 21 21 21 21 21 21 21 22 22 22 22 21 20 17 16 16 14 14 11 8 8 6 5 4 3 2 2 3 3 4 5 10 7 6 5 3 3 2 3 5
19 19 20 21 21 22 23 24 24 24 25 25 25 25 26 26 25 25 25 25 23 21 18 16 16 14 11 11 9 8 7 5 5 4 4 5 6 5 5 5 5 5 2 2 4 5 5
21 22 23 24 25 25 25 26 27 27 28 28 27 27 26 26 26 25 26 28 27 25 23 21 19 18 15 12 12 12 12 9 6 5 4 5 7 8 3 6 6 6 8 5 2 3 3
21 22 23 24 26 27 27 27 25 24 23 24 24 23 22 22 21 20 19 21 22 24 25 25 23 22 18 16 14 13 14 13 10 10 9 7 8 10 8 4 6 2 1 2 2 1 1
20 20 22 23 22 22 21 21 20 19 17 18 19 20 21 22 22 23 22 21 21 20 20 22 26 27 23 20 17 14 14 16 15 13 11 8 6 9 9 5 1 0 6 11 6 4 2
18 19 20 20 20 19 18 18 18 19 20 20 20 19 19 18 18 19 20 21 21 22 23 24 25 28 29 23 22 18 15 14 14 14 13 11 9 9 7 5 6 3 11 9 11 10 8
14 14 15 16 17 18 19 20 21 21 22 22 21 21 19 17 17 16 18 19 21 22 23 26 26 29 27 27 26 21 18 17 14 11 15 13 11 6 5 4 4 5 1 5 4 5 8
14 15 15 16 17 17 17 18 18 18 19 20 21 21 21 19 18 17 17 18 19 20 21 22 24 26 27 29 29 27 21 19 14 10 13 13 12 17 11 9 4 5 6 7 7 6 11
16 16 17 18 19 20 21 21 21 21 21 20 20 19 21 21 21 19 18 17 17 17 18 19 20 21 24 26 28 26 22 20 17 16 13 15 17 23 14 11 7 9 9 10 11 11 11
15 16 18 19 20 19 19 20 21 22 22 22 21 20 21 20 22 21 20 18 17 17 18 18 20 22 23 23 25 26 25 23 22 17 16 20 24 24 14 14 12 11 10 12 10 4 9
15 15 15 16 16 17 16 17 17 17 19 20 20 20 20 20 20 20 20 17 17 18 20 22 21 19 21 25 24 25 26 26 24 22 19 19 22 23 16 15 15 12 12 10 7 5 10
15 15 15 16 15 15 14 14 15 16 16 17 18 19 19 19 18 18 18 17 16 19 25 20 19 19 22 25 27 27 28 27 28 27 23 22 26 26 20 22 19 13 12 7 6 5 8
16 15 15 14 13 13 13 13 13 14 13 15 16 17 18 19 18 17 17 17 18 20 18 20 18 16 22 24 26 28 29 29 28 30 28 28 25 26 24 25 22 18 10 5 9 8 5
17 17 16 14 13 12 11 12 13 13 12 13 14 14 16 17 18 18 18 18 18 18 18 16 16 17 20 23 26 28 29 29 29 29 28 29 30 25 24 26 23 22 17 9 9 7 7
18 17 17 16 14 14 14 13 12 13 11 12 12 14 16 17 17 18 18 18 19 16 15 16 18 17 19 22 24 27 27 27 27 27 29 28 27 28 27 27 25 23 21 16 14 8 8
17 16 15 15 16 15 15 14 13 14 13 12 13 15 16 17 18 19 18 19 17 17 15 17 20 18 17 20 22 25 26 27 29 31 31 30 29 28 28 27 28 28 24 13 13 8 5
17 16 15 14 13 15 18 17 16 15 14 14 15 15 18 19 20 20 20 20 19 19 17 18 19 19 18 18 19 23 26 25 28 29 31 31 32 29 31 29 27 29 24 19 18 11 8
16 15 15 16 15 14 14 14 16 18 18 16 16 17 18 20 22 22 22 21 20 21 20 19 19 20 20 18 18 19 22 24 25 28 29 29 30 32 29 28 27 28 26 22 15 11 8
19 19 19 18 18 18 18 18 18 16 16 18 21 21 21 22 23 25 24 24 24 24 24 23 23 22 21 21 21 20 21 20 23 28 30 31 32 28 26 28 27 32 29 23 17 14 10
22 23 24 24 23 24 23 23 23 21 20 18 19 20 24 26 26 27 28 29 28 26 26 25 25 25 25 26 24 22 22 21 25 28 30 32 30 30 26 23 21 27 28 25 21 12 9
27 28 28 29 30 29 30 30 29 29 28 27 26 23 24 26 29 30 31 30 32 33 32 30 29 29 29 29 28 27 26 23 25 28 30 34 32 31 30 27 23 24 27 31 29 13 13
30 32 33 34 35 35 36 36 36 35 35 35 34 33 31 30 28 32 36 35 35 36 37 37 36 34 33 34 34 31 29 30 28 27 30 31 32 34 30 27 28 28 30 30 26 22 20
36 38 38 39 39 39 39 38 38 38 39 40 40 39 38 36 36 35 37 38 40 37 40 40 40 40 41 38 37 35 35 33 31 29 30 32 35 31 31 30 29 31 28 31 31 28 21
41 41 40 40 40 40 39 38 38 40 40 41 41 42 42 42 43 42 40 40 41 43 42 42 44 44 42 42 41 40 40 38 38 35 33 33 34 35 33 35 35 26 23 28 32 31 24
45 42 43 44 43 40 39 39 40 41 43 44 44 44 46 47 45 47 48 47 46 46 46 46 46 46 46 46 45 45 44 44 42 41 40 38 37 36 37 36 32 31 31 26 28 30 30
45 45 45 42 40 41 42 42 42 42 42 43 45 46 47 47 48 47 51 53 53 52 50 49 48 49 49 49 49 49 49 47 47 48 44 42 42 41 38 39 39 31 29 29 28 31 34
46 45 43 42 43 43 43 42 42 42 42 41 40 41 43 44 46 47 50 53 56 57 56 53 51 51 51 52 52 52 51 53 52 51 47 46 44 44 42 40 38 35 37 28 31 28 29
44 43 41 42 41 41 40 42 42 41 37 35 35 35 37 39 42 43 45 48 53 57 59 58 55 54 53 53 54 55 54 54 52 53 53 51 48 46 45 47 45 40 34 33 33 31 29
41 40 40 38 37 37 40 41 35 32 30 29 30 31 34 36 38 39 41 44 46 51 56 56 58 54 56 55 56 57 56 57 53 54 55 54 52 54 52 51 50 43 40 31 33 34 29
Wind_Direction
272 269 266 262 260 259 259 261 261 263 265 267 268 268 267 264 262 261 259 259 257 255 256 260 264 262 254 249 249 241 228 241 247 167 71 150 175 152 165 171 194 180 109 107 135 267 256
272 271 268 267 266 264 263 264 264 265 266 266 268 269 268 267 262 259 257 256 253 251 253 254 257 258 252 245 236 224 240 219 244 251 144 172 173 172 156 163 153 104 58 95 69 61 250
278 276 275 273 272 271 269 267 266 265 265 266 265 265 264 263 262 259 256 254 253 249 247 248 250 253 250 247 238 222 230 231 224 239 231 180 196 198 236 208 161 95 68 94 53 79 38
276 277 277 277 276 276 276 275 273 268 262 259 259 257 258 260 259 258 253 251 252 249 247 245 245 248 246 239 236 225 226 233 218 224 228 179 180 216 216 207 162 84 290 280 359 73 197
275 275 275 275 274 271 269 270 270 267 258 251 251 254 257 258 259 257 253 249 249 249 245 242 241 241 242 239 239 234 230 235 226 224 230 230 209 227 224 215 135 79 303 239 240 234 275
280 277 276 275 272 268 267 266 266 264 263 261 258 259 256 253 252 253 251 250 249 251 246 242 242 240 238 237 240 234 234 239 244 233 238 227 224 242 236 175 166 24 359 244 222 242 226
277 278 276 275 274 273 273 272 271 268 266 265 262 259 255 250 248 249 251 250 249 247 245 245 245 242 235 233 234 233 226 227 236 235 243 234 230 272 263 200 178 298 315 138 228 255 257
284 282 279 277 274 271 269 269 268 268 267 267 264 259 254 247 246 250 252 253 251 250 249 249 248 242 232 230 231 234 229 228 228 231 238 238 233 208 229 229 257 307 308 303 307 329 308
293 290 288 287 282 276 272 271 269 267 265 263 261 258 253 245 244 248 252 253 251 248 246 241 239 238 233 229 230 231 223 225 221 221 220 221 224 248 220 236 257 279 294 289 320 343 334
305 301 296 292 289 283 279 274 271 268 263 261 259 255 251 246 243 244 248 248 248 244 243 240 236 234 232 226 224 222 211 212 215 217 208 212 229 232 217 230 244 261 263 284 303 332 15
315 310 305 303 297 290 284 279 273 268 264 260 258 253 249 247 241 240 243 242 241 239 237 241 238 237 231 226 224 217 214 211 211 212 213 221 233 236 228 225 236 248 264 281 321 324 339
317 318 316 310 307 300 290 287 280 273 264 262 254 253 249 245 242 238 238 236 233 233 236 241 240 235 225 224 220 219 217 212 212 208 208 205 219 229 226 228 231 246 257 270 319 323 330
313 314 313 317 313 309 296 293 287 279 269 262 258 251 246 243 238 234 233 233 235 237 240 240 238 231 224 224 224 221 224 220 216 212 213 219 218 231 223 232 231 237 232 337 320 314 323
318 311 309 307 308 310 308 299 293 286 277 262 256 251 246 242 238 235 234 235 237 241 242 237 230 226 225 226 220 218 222 218 214 216 220 223 225 234 234 229 228 227 219 243 274 274 287
314 313 304 301 301 298 296 299 299 282 281 266 256 251 248 244 241 238 234 233 234 236 234 228 223 222 223 224 223 223 223 223 220 219 221 227 224 230 231 232 226 230 224 242 278 270 293
320 319 312 300 293 291 293 291 286 288 277 275 259 251 246 245 243 241 238 237 231 231 227 222 222 222 222 222 224 225 226 223 219 217 216 225 231 235 234 230 225 225 220 251 279 264 283
317 320 320 321 314 293 286 284 281 279 272 268 266 260 251 246 243 243 240 238 232 226 224 225 223 222 220 225 220 224 233 232 230 228 224 224 229 233 231 230 225 225 224 236 235 245 259
310 310 312 313 311 313 311 302 287 277 270 267 262 259 254 248 246 243 242 240 234 229 225 223 223 224 220 216 220 220 227 226 228 230 231 231 237 236 240 234 225 219 219 226 233 261 257
304 302 302 299 300 296 294 296 294 289 284 275 265 260 254 251 246 245 243 240 234 232 227 222 222 222 219 220 220 219 220 218 219 222 224 224 228 232 234 238 229 218 210 214 224 227 270
298 297 297 295 292 290 288 283 281 281 281 280 275 270 260 253 249 246 242 239 238 233 229 224 222 220 221 221 221 216 218 217 215 222 222 226 229 232 232 246 244 230 221 220 221 231 262
301 299 297 294 292 290 287 284 279 277 275 274 273 272 268 263 252 249 246 242 239 236 233 229 223 222 221 222 223 221 218 217 216 216 222 225 229 233 234 232 232 234 221 228 223 196 223
306 303 299 295 292 288 285 282 279 276 274 272 270 268 264 262 259 251 246 242 240 238 235 233 231 226 225 225 223 219 219 220 217 217 220 224 229 230 234 234 233 233 224 225 236 219 224
309 305 300 296 293 289 286 282 279 276 274 271 269 267 263 258 253 254 251 246 240 237 236 236 233 230 229 228 229 228 222 221 222 222 220 223 230 229 231 235 232 231 227 227 230 230 223
310 306 302 300 298 294 290 285 282 278 275 271 269 265 263 259 252 249 249 247 243 240 237 234 235 233 231 230 230 231 232 227 223 222 221 222 227 229 231 234 230 231 237 234 230 233 221
308 304 304 302 299 294 290 288 286 282 278 275 272 267 264 261 255 247 244 243 243 240 237 234 233 234 234 231 230 230 231 234 231 228 224 222 226 230 230 234 235 233 232 229 232 230 234
305 306 305 301 298 296 295 293 291 288 283 277 272 268 264 260 254 250 243 240 239 241 239 237 233 231 232 234 234 229 229 233 233 234 230 228 227 230 230 231 233 234 237 225 229 228 225
305 305 302 300 300 300 300 299 295 290 285 279 273 267 262 258 255 251 246 240 237 237 239 238 235 233 230 230 231 233 232 231 228 234 234 236 234 234 235 237 235 234 235 231 231 232 227
304 301 301 302 302 303 301 300 297 292 287 282 277 270 263 259 255 253 251 246 241 237 236 235 236 234 232 230 230 232 231 234 231 231 232 232 236 237 237 240 237 235 231 229 227 230 232
301 300 302 303 303 302 303 302 295 290 286 279 275 274 268 259 258 254 251 249 245 241 239 236 236 236 234 231 231 232 230 232 232 233 233 230 232 235 236 239 242 238 236 229 231 231 230
Height
5895 5895 5896 5896 5897 5898 5898 5898 5899 5899 5900 5901 5901 5902 5903 5904 5905 5906 5906 5908 5910 5911 5912 5913 5913 5915 5916 5917 5918 5918 5918 5919 5919 5919 5919 5919 5920 5921 5921 5923 5924 5924 5923 5922 5923 5923 5922
5890 5891 5891 5891 5892 5893 5893 5893 5894 5894 5895 5896 5896 5897 5898 5898 5899 5901 5902 5902 5905 5907 5909 5910 5910 5912 5914 5915 5916 5917 5917 5918 5919 5919 5920 5921 5921 5921 5922 5923 5924 5924 5923 5923 5923 5923 5922
5885 5885 5886 5886 5886 5887 5887 5888 5889 5889 5890 5890 5891 5891 5892 5892 5893 5894 5896 5897 5899 5901 5904 5906 5907 5908 5911 5913 5913 5914 5915 5916 5918 5919 5919 5921 5921 5922 5923 5924 5924 5923 5924 5923 5923 5923 5922
5881 5880 5880 5880 5880 5880 5880 5880 5881 5882 5883 5884 5885 5886 5886 5887 5888 5889 5890 5891 5893 5896 5898 5901 5903 5904 5907 5909 5910 5912 5913 5914 5916 5917 5918 5920 5921 5922 5924 5923 5923 5923 5923 5922 5922 5922 5922
5877 5876 5876 5875 5875 5875 5875 5875 5875 5875 5877 5878 5879 5880 5881 5882 5882 5883 5885 5886 5888 5890 5892 5894 5898 5899 5903 5905 5907 5909 5911 5912 5913 5915 5916 5917 5919 5921 5922 5922 5923 5923 5925 5922 5922 5921 5921
5872 5872 5871 5870 5870 5870 5870 5870 5871 5871 5872 5872 5874 5875 5876 5877 5877 5878 5879 5881 5883 5885 5887 5889 5891 5894 5897 5902 5902 5905 5908 5910 5912 5914 5915 5916 5917 5918 5920 5921 5923 5923 5921 5918 5920 5921 5920
5869 5868 5867 5866 5866 5865 5865 5865 5865 5865 5865 5866 5867 5869 5871 5872 5873 5874 5875 5876 5879 5881 5881 5883 5885 5887 5892 5896 5897 5900 5904 5906 5909 5912 5912 5914 5915 5917 5916 5919 5920 5920 5919 5919 5920 5921 5920
5866 5865 5864 5863 5862 5861 5861 5860 5860 5860 5860 5860 5861 5862 5864 5866 5868 5869 5870 5871 5873 5876 5877 5878 5879 5881 5885 5889 5892 5895 5900 5904 5906 5908 5909 5912 5913 5917 5917 5917 5919 5918 5919 5919 5919 5918 5916
5861 5860 5859 5857 5857 5856 5855 5855 5855 5855 5855 5855 5856 5857 5858 5860 5862 5864 5866 5867 5868 5870 5872 5873 5874 5876 5880 5884 5887 5891 5896 5900 5903 5905 5907 5909 5912 5912 5913 5915 5917 5918 5917 5917 5917 5916 5912
5857 5855 5853 5852 5851 5850 5849 5849 5849 5849 5849 5850 5850 5851 5852 5854 5858 5859 5861 5862 5864 5865 5867 5869 5869 5871 5875 5878 5882 5886 5890 5895 5898 5902 5904 5905 5905 5907 5911 5913 5914 5917 5916 5915 5915 5915 5912
5853 5851 5849 5847 5846 5845 5844 5843 5843 5843 5843 5844 5844 5845 5847 5848 5851 5854 5856 5858 5860 5861 5863 5864 5865 5868 5871 5874 5878 5882 5885 5889 5893 5897 5901 5903 5903 5905 5908 5912 5912 5915 5913 5914 5913 5912 5911
5850 5848 5845 5843 5842 5840 5839 5838 5838 5838 5838 5838 5839 5840 5842 5843 5846 5849 5851 5853 5855 5858 5856 5858 5861 5863 5866 5869 5873 5876 5881 5885 5887 5891 5895 5899 5899 5902 5905 5906 5909 5911 5912 5913 5913 5911 5912
5847 5844 5842 5840 5838 5837 5835 5834 5834 5833 5834 5834 5834 5835 5837 5838 5842 5844 5846 5848 5852 5851 5854 5855 5857 5860 5862 5864 5868 5871 5875 5880 5884 5886 5889 5892 5896 5897 5901 5902 5906 5908 5911 5914 5914 5913 5912
5843 5841 5838 5837 5835 5834 5832 5832 5831 5830 5830 5830 5830 5831 5832 5834 5836 5839 5841 5844 5846 5847 5848 5851 5853 5855 5858 5860 5863 5866 5870 5875 5879 5883 5887 5888 5891 5894 5897 5900 5903 5905 5908 5910 5911 5912 5913
5839 5837 5834 5833 5831 5830 5829 5828 5827 5827 5826 5826 5827 5827 5828 5830 5832 5834 5837 5838 5840 5842 5844 5846 5849 5851 5853 5856 5860 5862 5866 5870 5875 5879 5883 5885 5889 5889 5892 5895 5900 5901 5904 5906 5907 5910 5911
5835 5832 5830 5828 5827 5826 5825 5825 5824 5824 5823 5823 5823 5824 5824 5826 5827 5829 5832 5833 5835 5837 5840 5842 5844 5847 5850 5852 5856 5859 5862 5866 5869 5872 5877 5881 5884 5885 5887 5890 5894 5896 5900 5905 5904 5908 5909
5831 5829 5826 5824 5823 5821 5820 5820 5820 5819 5819 5819 5819 5819 5820 5821 5822 5824 5826 5828 5830 5832 5835 5837 5840 5842 5846 5848 5852 5855 5858 5862 5864 5868 5872 5876 5878 5882 5882 5885 5890 5893 5897 5899 5901 5905 5907
5827 5825 5823 5821 5820 5818 5816 5815 5815 5814 5814 5815 5814 5815 5814 5815 5818 5819 5820 5823 5826 5827 5829 5832 5834 5837 5840 5844 5847 5850 5853 5856 5859 5863 5867 5872 5874 5875 5878 5882 5885 5887 5892 5895 5900 5902 5904
5822 5820 5818 5817 5815 5813 5812 5810 5809 5809 5808 5808 5809 5809 5809 5809 5811 5812 5814 5816 5818 5821 5823 5826 5828 5831 5835 5838 5842 5844 5846 5850 5853 5856 5860 5865 5867 5871 5875 5876 5879 5882 5886 5890 5895 5898 5900
5817 5814 5812 5810 5809 5807 5806 5804 5803 5803 5802 5802 5802 5802 5803 5802 5804 5805 5806 5809 5811 5814 5816 5819 5823 5825 5828 5831 5835 5839 5841 5844 5846 5849 5854 5857 5862 5865 5871 5875 5876 5879 5884 5886 5890 5894 5897
5809 5807 5805 5802 5800 5799 5797 5796 5795 5794 5793 5794 5794 5794 5794 5794 5795 5796 5798 5801 5803 5805 5809 5812 5815 5818 5821 5825 5828 5831 5835 5838 5840 5843 5847 5850 5855 5859 5863 5867 5870 5874 5878 5881 5882 5890 5893
5800 5797 5795 5792 5790 5788 5786 5784 5783 5783 5783 5783 5782 5783 5784 5785 5785 5786 5787 5790 5792 5795 5799 5802 5807 5811 5814 5816 5819 5822 5827 5830 5833 5838 5840 5844 5848 5851 5857 5860 5863 5866 5871 5875 5880 5885 5888
5790 5786 5783 5780 5777 5775 5773 5772 5770 5769 5769 5768 5769 5770 5771 5773 5774 5775 5775 5779 5781 5785 5787 5791 5795 5800 5803 5808 5811 5816 5819 5823 5827 5831 5834 5838 5840 5846 5850 5853 5857 5859 5865 5870 5875 5879 5885
5779 5774 5770 5767 5764 5761 5759 5757 5756 5754 5754 5753 5753 5754 5755 5757 5759 5761 5764 5765 5768 5772 5775 5780 5783 5787 5794 5798 5803 5807 5810 5815 5819 5823 5827 5831 5834 5838 5843 5845 5847 5856 5860 5863 5868 5873 5879
5765 5761 5757 5753 5750 5746 5744 5742 5740 5738 5737 5736 5736 5736 5737 5738 5741 5744 5747 5751 5754 5757 5761 5766 5771 5776 5780 5786 5791 5796 5800 5804 5810 5814 5819 5824 5826 5831 5834 5838 5844 5848 5852 5857 5861 5867 5871
5752 5748 5743 5739 5734 5731 5728 5725 5723 5721 5719 5718 5717 5717 5718 5719 5721 5725 5728 5733 5737 5741 5746 5749 5756 5762 5767 5772 5777 5782 5788 5794 5799 5800 5808 5814 5819 5822 5827 5829 5834 5842 5846 5851 5854 5858 5861
5739 5734 5729 5725 5720 5716 5712 5709 5706 5703 5701 5699 5698 5699 5700 5700 5703 5705 5709 5714 5719 5724 5728 5734 5739 5745 5752 5757 5763 5769 5775 5779 5785 5790 5798 5803 5809 5812 5818 5821 5828 5834 5835 5845 5848 5856 5857
5726 5721 5716 5712 5707 5703 5699 5695 5691 5687 5685 5684 5683 5683 5684 5685 5687 5689 5691 5695 5700 5704 5710 5718 5723 5728 5735 5742 5748 5753 5761 5765 5773 5779 5785 5792 5798 5802 5808 5810 5815 5823 5831 5836 5841 5845 5850
5712 5708 5704 5699 5695 5691 5686 5681 5677 5674 5672 5670 5670 5670 5669 5670 5673 5674 5675 5678 5682 5687 5693 5698 5704 5712 5717 5725 5731 5736 5745 5751 5761 5766 5772 5780 5787 5791 5796 5802 5803 5813 5820 5829 5832 5838 5842